Regional Weather Roundup
Issued by NWS Cleveland, OH

Home | Current Version | Previous Version | Graphics & Text | Print | Product List | Glossary On
Versions: 1 2 3 4 5 6 7 8 9 10 11 12 13 14 15 16 17 18 19 20 21 22 23 24 25 26 27 28 29 30 31 32 33 34 35 36 37 38 39 40 41 42 43 44 45 46 47 48 49 50
000
ASUS41 KCLE 251802
RWRCLE
OHIO REGIONAL WEATHER ROUNDUP
NATIONAL WEATHER SERVICE CLEVELAND, OH
200 PM EDT SUN SEP 25 2016

NOTE: "FAIR" INDICATES FEW OR NO CLOUDS BELOW 12,000 FEET WITH NO
SIGNIFICANT WEATHER AND/OR OBSTRUCTIONS TO VISIBILITY.

OHZ001>008-015>018-024>027-034-035-043-044-251900-
   NORTHWEST OHIO

CITY           SKY/WX    TMP DP  RH WIND       PRES   REMARKS
DEFIANCE       SUNNY     76  52  43 NE5       30.13F
FINDLAY        SUNNY     78  48  34 VRB6      30.13F
TOLEDO EXPRESS SUNNY     72  48  42 E5        30.14F
TOLEDO EXEC    SUNNY     73  48  41 SE5       30.15F
LIMA           SUNNY     77  58  51 CALM      30.12F
$$

OHZ009>014-019>023-028>033-038-089-251900-
   NORTHEAST OHIO

CITY           SKY/WX    TMP DP  RH WIND       PRES   REMARKS
CLE-HOPKINS    MOSUNNY   74  42  31 VRB5      30.18F
CLE-LAKEFRONT  SUNNY     71  49  45 N12       30.15F
CUY CO. ARPT   PTSUNNY   73  48  40 E9        30.17F
LORAIN-ELYRIA  SUNNY     73  40  30 N3        30.16F
ASHTABULA      SUNNY     69  37  30 E8        30.19F
AKRON-CANTON   MOSUNNY   72  46  39 SE8       30.16F
WOOSTER        SUNNY     73  45  36 VRB3      30.16F
MANSFIELD      SUNNY     75  40  28 E3        30.16F
YOUNGSTOWN     PTSUNNY   70  44  39 NE7       30.17F
$$

OHZ042-051>053-060>062-070>072-077>081-251900-
  SOUTHWEST OHIO

CITY           SKY/WX    TMP DP  RH WIND       PRES   REMARKS
CINC-COVINGTON MOSUNNY   83  64  52 CALM      30.11F
CINC-LUNKEN    SUNNY     81  67  62 SW6       30.10F
HAMILTON       SUNNY     82  63  52 CALM      30.12F
DAYTON         MOSUNNY   80  61  52 CALM      30.13F
WRIGHT-PAT AFB MOSUNNY   80  62  54 VRB3      30.11F
DAYTON GENERAL SUNNY     79  62  56 CALM      30.11F
WILMINGTON     SUNNY     81  63  54 W5        30.12F
$$

OHZ036-037-039>041-045>050-054>059-063>069-073>076-082>088-251900-
  CENTRAL AND SOUTHEAST OHIO

CITY           SKY/WX    TMP DP  RH WIND       PRES   REMARKS
COLUMBUS       SUNNY     77  55  46 VRB3      30.13F
OSU AIRPORT    SUNNY     77  56  48 SW5       30.13F
BOLTON FIELD   SUNNY     77  59  53 CALM      30.14F
RICKENBACK AFB SUNNY     76  56  48 NW5       30.13F
NEWARK         SUNNY     76  49  38 S5        30.13F
MARION         SUNNY     77  47  34 CALM      30.14F
LANCASTER      SUNNY     78  50  37 SE5       30.13F
ZANESVILLE     SUNNY     77  47  34 CALM      30.13F
NEW PHILLY     SUNNY     77  50  38 S9        30.14F
$$




USA.gov is the U.S. government's official web portal to all federal, state and local government web resources and services.